When you browse on this site, cookies collect data to enhance your experience and personalize the content and advertising you see.
Visit our Privacy Policy to learn more. By continuing to use the site, you agree to this use of cookies and data.
  • In Austria
  • List of Countries
  • For 7 days
  • Water Temperature
  • Satellite Maps
  • Weather Map
  • News
  • Weather Widgets
  • user-avatar
    Login

    Hourly Weather Seli

    Today, 24 April, Wednesday

    Time Temperature Precipitation Wind Pressure Humidity
    00:00 +18°C° 0 mm 4 mps 753 mmHg 51%
    01:00 +17°C° 0 mm 4 mps 753 mmHg 55%
    02:00 +16°C° 0 mm 7 mps 753 mmHg 57%
    03:00 +16°C° 0 mm 7 mps 753 mmHg 58%
    04:00 +15°C° 0 mm 6 mps 753 mmHg 58%
    05:00 +15°C° 0 mm 5 mps 753 mmHg 58%
    06:00 +16°C° 0 mm 5 mps 753 mmHg 55%
    07:00 +17°C° 0 mm 5 mps 754 mmHg 52%
    08:00 +20°C° 0 mm 6 mps 754 mmHg 47%
    09:00 +21°C° 0 mm 5 mps 754 mmHg 45%
    10:00 +22°C° 0 mm 5 mps 755 mmHg 43%
    11:00 +23°C° 0 mm 5 mps 755 mmHg 41%
    12:00 +23°C° 0 mm 4 mps 755 mmHg 40%
    13:00 +23°C° 0 mm 4 mps 755 mmHg 40%
    14:00 +24°C° 0 mm 3 mps 755 mmHg 39%
    15:00 +24°C° 0 mm 3 mps 755 mmHg 41%
    16:00 +22°C° 0 mm 4 mps 754 mmHg 44%
    17:00 +21°C° 0 mm 4 mps 754 mmHg 46%
    18:00 +21°C° 0 mm 4 mps 754 mmHg 44%
    19:00 +20°C° 0 mm 4 mps 754 mmHg 43%
    20:00 +20°C° 0 mm 4 mps 754 mmHg 41%
    21:00 +20°C° 0 mm 4 mps 754 mmHg 40%
    22:00 +20°C° 0 mm 3 mps 754 mmHg 38%
    23:00 +20°C° 0 mm 3 mps 754 mmHg 37%

    Tomorrow, 25 April, Thursday

    Time Temperature Precipitation Wind Pressure Humidity
    00:00 +19°C° 0 mm 3 mps 754 mmHg 38%
    01:00 +19°C° 0 mm 3 mps 754 mmHg 40%
    02:00 +18°C° 0 mm 2 mps 754 mmHg 41%
    03:00 +18°C° 0 mm 3 mps 754 mmHg 44%
    04:00 +17°C° 0 mm 3 mps 754 mmHg 46%
    05:00 +17°C° 0 mm 3 mps 753 mmHg 49%
    06:00 +18°C° 0 mm 3 mps 754 mmHg 47%
    07:00 +20°C° 0 mm 3 mps 754 mmHg 46%
    08:00 +21°C° 0 mm 3 mps 754 mmHg 45%
    09:00 +24°C° 0 mm 3 mps 754 mmHg 43%
    10:00 +25°C° 0 mm 2 mps 754 mmHg 40%
    11:00 +26°C° 0 mm 2 mps 754 mmHg 38%
    12:00 +26°C° 0 mm 2 mps 754 mmHg 38%
    13:00 +27°C° 0 mm 2 mps 754 mmHg 38%
    14:00 +27°C° 0 mm 2 mps 754 mmHg 37%
    15:00 +26°C° 0 mm 1 mps 754 mmHg 40%
    16:00 +25°C° 0 mm 1 mps 753 mmHg 43%
    17:00 +25°C° 0 mm 1 mps 753 mmHg 46%
    18:00 +24°C° 0 mm 2 mps 753 mmHg 47%
    19:00 +23°C° 0 mm 2 mps 753 mmHg 48%
    20:00 +21°C° 0 mm 3 mps 752 mmHg 50%
    21:00 +21°C° 0.1 mm 3 mps 752 mmHg 47%
    22:00 +21°C° 0.1 mm 3 mps 752 mmHg 45%
    23:00 +22°C° 0.1 mm 3 mps 752 mmHg 42%

    Day after tomorrow, 26 April, Friday

    Time Temperature Precipitation Wind Pressure Humidity
    00:00 +21°C° 0.1 mm 3 mps 752 mmHg 44%
    01:00 +20°C° 0.1 mm 2 mps 752 mmHg 47%
    02:00 +20°C° 0.1 mm 2 mps 752 mmHg 49%
    03:00 +19°C° 0 mm 2 mps 751 mmHg 50%
    04:00 +20°C° 0 mm 1 mps 751 mmHg 50%
    05:00 +19°C° 0 mm 1 mps 751 mmHg 51%
    06:00 +21°C° 0.1 mm 1 mps 751 mmHg 47%
    07:00 +21°C° 0.1 mm 2 mps 751 mmHg 43%
    08:00 +24°C° 0.1 mm 2 mps 751 mmHg 39%
    09:00 +25°C° 0 mm 2 mps 751 mmHg 37%
    10:00 +26°C° 0 mm 3 mps 751 mmHg 35%
    11:00 +28°C° 0 mm 3 mps 751 mmHg 33%
    12:00 +28°C° 0 mm 3 mps 751 mmHg 33%
    13:00 +28°C° 0 mm 3 mps 751 mmHg 33%
    14:00 +28°C° 0 mm 3 mps 751 mmHg 33%
    15:00 +27°C° 0 mm 3 mps 750 mmHg 35%
    16:00 +27°C° 0 mm 3 mps 750 mmHg 38%
    17:00 +26°C° 0 mm 3 mps 749 mmHg 41%
    18:00 +24°C° 0 mm 3 mps 750 mmHg 47%
    19:00 +21°C° 0 mm 2 mps 750 mmHg 53%
    20:00 +20°C° 0 mm 2 mps 750 mmHg 59%
    21:00 +19°C° 0 mm 2 mps 750 mmHg 57%
    22:00 +19°C° 0 mm 2 mps 750 mmHg 54%
    23:00 +19°C° 0 mm 2 mps 750 mmHg 52%

    27 April, Saturday

    Time Temperature Precipitation Wind Pressure Humidity
    00:00 +18°C° 0 mm 2 mps 750 mmHg 51%
    01:00 +18°C° 0 mm 2 mps 749 mmHg 50%
    02:00 +19°C° 0 mm 1 mps 749 mmHg 49%
    03:00 +18°C° 0 mm 1 mps 749 mmHg 47%
    04:00 +18°C° 0 mm 1 mps 748 mmHg 46%
    05:00 +17°C° 0 mm 2 mps 748 mmHg 45%
    06:00 +19°C° 0 mm 2 mps 748 mmHg 41%
    07:00 +21°C° 0 mm 2 mps 748 mmHg 38%
    08:00 +25°C° 0 mm 2 mps 748 mmHg 34%
    09:00 +25°C° 0 mm 3 mps 748 mmHg 34%
    10:00 +26°C° 0 mm 3 mps 748 mmHg 35%
    11:00 +27°C° 0 mm 3 mps 748 mmHg 35%
    12:00 +27°C° 0 mm 3 mps 748 mmHg 36%
    13:00 +27°C° 0 mm 4 mps 748 mmHg 37%
    14:00 +27°C° 0 mm 4 mps 747 mmHg 38%
    15:00 +27°C° 0 mm 3 mps 747 mmHg 40%
    16:00 +26°C° 0 mm 3 mps 747 mmHg 43%
    17:00 +26°C° 0 mm 2 mps 746 mmHg 46%
    18:00 +24°C° 0 mm 2 mps 746 mmHg 52%
    19:00 +22°C° 0 mm 1 mps 746 mmHg 59%
    20:00 +20°C° 0 mm 1 mps 746 mmHg 66%
    21:00 +20°C° 0 mm 1 mps 747 mmHg 66%
    22:00 +19°C° 0 mm 2 mps 747 mmHg 66%
    23:00 +18°C° 0 mm 2 mps 747 mmHg 66%

    28 April, Sunday

    Time Temperature Precipitation Wind Pressure Humidity
    00:00 +18°C° 0 mm 2 mps 747 mmHg 65%
    01:00 +18°C° 0 mm 2 mps 746 mmHg 65%
    02:00 +18°C° 0 mm 3 mps 746 mmHg 65%
    03:00 +18°C° 0 mm 3 mps 746 mmHg 64%
    04:00 +17°C° 0 mm 3 mps 746 mmHg 63%
    05:00 +17°C° 0 mm 3 mps 746 mmHg 61%
    06:00 +19°C° 0 mm 3 mps 746 mmHg 57%
    07:00 +21°C° 0 mm 3 mps 746 mmHg 52%
    08:00 +24°C° 0 mm 3 mps 747 mmHg 47%
    09:00 +25°C° 0 mm 3 mps 747 mmHg 46%
    10:00 +26°C° 0 mm 4 mps 747 mmHg 44%
    11:00 +26°C° 0 mm 5 mps 747 mmHg 43%
    12:00 +27°C° 0 mm 5 mps 747 mmHg 41%
    13:00 +27°C° 0 mm 5 mps 747 mmHg 39%
    14:00 +27°C° 0 mm 5 mps 747 mmHg 36%
    15:00 +26°C° 0 mm 5 mps 747 mmHg 39%
    16:00 +25°C° 0 mm 5 mps 747 mmHg 42%
    17:00 +23°C° 0 mm 5 mps 747 mmHg 45%
    18:00 +21°C° 0 mm 5 mps 747 mmHg 53%
    19:00 +19°C° 0 mm 4 mps 747 mmHg 60%
    20:00 +18°C° 0 mm 4 mps 747 mmHg 68%
    21:00 +17°C° 0 mm 4 mps 748 mmHg 67%
    22:00 +17°C° 0 mm 4 mps 748 mmHg 66%
    23:00 +15°C° 0 mm 4 mps 748 mmHg 65%

    29 April, Monday

    Time Temperature Precipitation Wind Pressure Humidity
    00:00 +15°C° 0 mm 4 mps 748 mmHg 65%
    01:00 +15°C° 0 mm 4 mps 748 mmHg 65%
    02:00 +14°C° 0 mm 4 mps 747 mmHg 65%
    03:00 +14°C° 0 mm 4 mps 747 mmHg 68%
    04:00 +13°C° 0 mm 4 mps 747 mmHg 70%
    05:00 +13°C° 0 mm 4 mps 747 mmHg 72%
    06:00 +15°C° 0 mm 4 mps 747 mmHg 66%
    07:00 +17°C° 0 mm 3 mps 747 mmHg 60%
    08:00 +19°C° 0 mm 3 mps 748 mmHg 55%
    09:00 +20°C° 0 mm 3 mps 748 mmHg 52%
    10:00 +21°C° 0 mm 3 mps 748 mmHg 50%
    11:00 +22°C° 0 mm 4 mps 748 mmHg 47%
    12:00 +22°C° 0 mm 4 mps 748 mmHg 47%
    13:00 +23°C° 0 mm 4 mps 748 mmHg 47%
    14:00 +23°C° 0 mm 4 mps 747 mmHg 46%
    15:00 +22°C° 0 mm 4 mps 747 mmHg 50%
    16:00 +21°C° 0 mm 4 mps 747 mmHg 53%
    17:00 +21°C° 0 mm 4 mps 747 mmHg 56%
    18:00 +19°C° 0 mm 4 mps 747 mmHg 65%
    19:00 +18°C° 0 mm 4 mps 747 mmHg 75%
    20:00 +15°C° 0 mm 4 mps 747 mmHg 84%
    21:00 +15°C° 0 mm 4 mps 747 mmHg 84%
    22:00 +14°C° 0 mm 4 mps 747 mmHg 84%
    23:00 +14°C° 0 mm 4 mps 747 mmHg 85%
    Show more